TimeEST,TemperatureF,Dew PointF,Humidity,Sea Level PressureIn,VisibilityMPH,Wind Direction,Wind SpeedMPH,Gust SpeedMPH,PrecipitationIn,Events,Conditions,WindDirDegrees,DateUTC
12:15 AM,30.0,27.0,88,30.40,10.0,Calm,Calm,-,N/A,,Clear,0,2012-12-31 05:15:00
12:35 AM,29.5,26.2,88,30.39,10.0,Calm,Calm,-,N/A,,Clear,0,2012-12-31 05:35:00
12:55 AM,28.2,26.4,93,30.38,10.0,Calm,Calm,-,N/A,,Clear,0,2012-12-31 05:55:00
1:15 AM,28.8,26.2,90,30.39,10.0,Calm,Calm,-,N/A,,Clear,0,2012-12-31 06:15:00
1:35 AM,28.9,26.6,91,30.39,10.0,Calm,Calm,-,N/A,,Clear,0,2012-12-31 06:35:00
1:55 AM,28.0,25.9,92,30.38,10.0,Calm,Calm,-,N/A,,Clear,0,2012-12-31 06:55:00
2:15 AM,28.4,26.6,93,30.37,10.0,Calm,Calm,-,N/A,,Clear,0,2012-12-31 07:15:00
2:35 AM,28.4,26.2,92,30.37,10.0,Calm,Calm,-,N/A,,Clear,0,2012-12-31 07:35:00
2:55 AM,28.6,26.4,92,30.38,10.0,Calm,Calm,-,N/A,,Clear,0,2012-12-31 07:55:00
3:15 AM,28.8,27.0,93,30.37,10.0,SW,3.5,-,N/A,,Clear,220,2012-12-31 08:15:00
3:35 AM,28.0,25.7,91,30.36,10.0,Calm,Calm,-,N/A,,Clear,0,2012-12-31 08:35:00
3:55 AM,27.9,25.7,92,30.37,10.0,Calm,Calm,-,N/A,,Clear,0,2012-12-31 08:55:00
4:15 AM,28.2,25.9,91,30.37,10.0,Calm,Calm,-,N/A,,Clear,0,2012-12-31 09:15:00
4:35 AM,28.2,26.6,94,30.38,10.0,Calm,Calm,-,N/A,,Clear,0,2012-12-31 09:35:00
4:55 AM,27.9,26.2,94,30.38,10.0,Calm,Calm,-,N/A,,Clear,0,2012-12-31 09:55:00
5:15 AM,28.2,26.6,94,30.38,10.0,Calm,Calm,-,N/A,,Clear,0,2012-12-31 10:15:00
5:35 AM,27.0,25.2,93,30.39,10.0,Calm,Calm,-,N/A,,Clear,0,2012-12-31 10:35:00
5:55 AM,27.7,25.7,92,30.39,10.0,Calm,Calm,-,N/A,,Clear,0,2012-12-31 10:55:00
6:15 AM,27.9,26.2,94,30.39,10.0,Calm,Calm,-,N/A,,Clear,0,2012-12-31 11:15:00
6:35 AM,26.1,24.3,93,30.39,10.0,Calm,Calm,-,N/A,,Clear,0,2012-12-31 11:35:00
6:55 AM,27.1,25.9,95,30.39,10.0,Calm,Calm,-,N/A,,Clear,0,2012-12-31 11:55:00
7:15 AM,26.4,24.8,94,30.39,10.0,Calm,Calm,-,N/A,,Clear,0,2012-12-31 12:15:00
7:35 AM,27.7,26.1,94,30.40,10.0,Calm,Calm,-,N/A,,Clear,0,2012-12-31 12:35:00
7:55 AM,27.0,25.5,94,30.40,10.0,Calm,Calm,-,N/A,,Clear,0,2012-12-31 12:55:00
8:15 AM,29.5,27.1,91,30.40,10.0,Calm,Calm,-,N/A,,Clear,0,2012-12-31 13:15:00
8:35 AM,31.6,28.6,88,30.40,10.0,Calm,Calm,-,N/A,,Clear,0,2012-12-31 13:35:00
8:55 AM,32.4,29.7,90,30.41,10.0,Calm,Calm,-,N/A,,Clear,0,2012-12-31 13:55:00
9:15 AM,33.8,30.2,87,30.41,10.0,Calm,Calm,-,N/A,,Clear,0,2012-12-31 14:15:00
9:35 AM,35.8,28.6,75,30.42,10.0,Calm,Calm,-,N/A,,Clear,0,2012-12-31 14:35:00
9:55 AM,38.3,28.8,69,30.43,10.0,WSW,3.5,-,N/A,,Clear,250,2012-12-31 14:55:00
10:15 AM,41.9,29.1,61,30.42,10.0,SW,6.9,-,N/A,,Clear,220,2012-12-31 15:15:00
10:35 AM,44.1,27.3,52,30.42,10.0,SW,4.6,-,N/A,,Clear,220,2012-12-31 15:35:00
10:55 AM,45.9,27.9,49,30.39,10.0,SSW,8.1,-,N/A,,Clear,200,2012-12-31 15:55:00
11:15 AM,46.8,27.5,47,30.38,10.0,SSW,8.1,-,N/A,,Clear,210,2012-12-31 16:15:00
11:35 AM,48.0,25.9,42,30.37,10.0,SSW,8.1,-,N/A,,Clear,200,2012-12-31 16:35:00
11:55 AM,49.5,24.4,38,30.35,10.0,SSW,9.2,-,N/A,,Clear,200,2012-12-31 16:55:00
12:15 PM,50.9,22.6,33,30.35,10.0,South,9.2,-,N/A,,Clear,190,2012-12-31 17:15:00
12:35 PM,51.8,21.7,31,30.33,10.0,SSW,8.1,-,N/A,,Clear,210,2012-12-31 17:35:00
12:55 PM,52.7,23.2,32,30.30,10.0,SW,10.4,-,N/A,,Clear,220,2012-12-31 17:55:00
1:15 PM,53.8,26.1,34,30.28,10.0,SSW,11.5,-,N/A,,Clear,200,2012-12-31 18:15:00
1:35 PM,54.1,27.9,36,30.28,10.0,SSW,8.1,-,N/A,,Clear,200,2012-12-31 18:35:00
1:55 PM,54.1,29.1,38,30.28,10.0,SSW,9.2,-,N/A,,Clear,210,2012-12-31 18:55:00
2:15 PM,55.0,32.0,42,30.28,10.0,SSW,10.4,-,N/A,,Clear,210,2012-12-31 19:15:00
2:35 PM,55.6,32.5,42,30.26,10.0,SSW,10.4,17.3,N/A,,Clear,210,2012-12-31 19:35:00
2:55 PM,56.3,34.0,43,30.26,10.0,SW,10.4,-,N/A,,Clear,220,2012-12-31 19:55:00
3:15 PM,56.3,34.3,44,30.26,10.0,SW,6.9,-,N/A,,Clear,220,2012-12-31 20:15:00
3:35 PM,56.5,34.9,44,30.25,10.0,SW,8.1,-,N/A,,Clear,220,2012-12-31 20:35:00
3:55 PM,56.8,35.4,45,30.24,10.0,SSW,6.9,-,N/A,,Scattered Clouds,210,2012-12-31 20:55:00
4:15 PM,56.3,36.5,47,30.23,10.0,SW,6.9,-,N/A,,Clear,220,2012-12-31 21:15:00
4:35 PM,54.7,37.0,51,30.23,10.0,SW,3.5,-,N/A,,Clear,220,2012-12-31 21:35:00
4:55 PM,53.8,37.9,55,30.23,10.0,SW,4.6,-,N/A,,Clear,220,2012-12-31 21:55:00
5:35 PM,50.9,37.8,61,30.23,10.0,South,4.6,-,N/A,,Clear,190,2012-12-31 22:35:00
5:55 PM,49.5,37.4,63,30.23,10.0,South,3.5,-,N/A,,Clear,180,2012-12-31 22:55:00
6:15 PM,48.6,37.4,65,30.24,10.0,South,3.5,-,N/A,,Clear,190,2012-12-31 23:15:00
6:35 PM,48.2,37.2,66,30.23,10.0,South,4.6,-,N/A,,Scattered Clouds,190,2012-12-31 23:35:00
6:55 PM,46.9,37.0,68,30.24,10.0,SSW,4.6,-,N/A,,Clear,200,2012-12-31 23:55:00
7:15 PM,46.8,37.0,69,30.24,10.0,SSW,3.5,-,N/A,,Scattered Clouds,200,2013-01-01 00:15:00
7:35 PM,47.3,37.8,69,30.23,10.0,SSW,4.6,-,N/A,,Scattered Clouds,200,2013-01-01 00:35:00
8:15 PM,47.5,38.5,71,30.22,10.0,SSW,5.8,-,N/A,,Clear,200,2013-01-01 01:15:00
8:35 PM,48.4,38.7,69,30.21,10.0,SSW,4.6,-,N/A,,Clear,210,2013-01-01 01:35:00
8:55 PM,48.6,39.4,71,30.21,10.0,SSW,5.8,-,N/A,,Clear,210,2013-01-01 01:55:00
9:15 PM,49.3,39.7,70,30.20,10.0,SW,4.6,-,N/A,,Clear,220,2013-01-01 02:15:00
9:35 PM,49.1,40.3,72,30.20,10.0,SSW,5.8,-,N/A,,Scattered Clouds,210,2013-01-01 02:35:00
9:55 PM,49.5,40.6,72,30.18,10.0,SSW,4.6,-,N/A,,Clear,200,2013-01-01 02:55:00
10:15 PM,49.5,41.4,74,30.19,10.0,SSW,4.6,-,N/A,,Clear,210,2013-01-01 03:15:00
10:35 PM,50.0,41.5,73,30.18,10.0,SSW,5.8,-,N/A,,Clear,200,2013-01-01 03:35:00
10:55 PM,50.0,41.9,74,30.17,10.0,SSW,4.6,-,N/A,,Clear,210,2013-01-01 03:55:00
11:15 PM,50.2,42.3,74,30.17,10.0,SW,5.8,-,N/A,,Clear,220,2013-01-01 04:15:00
11:35 PM,50.4,42.4,74,30.17,10.0,SSW,3.5,-,N/A,,Clear,210,2013-01-01 04:35:00
11:55 PM,50.5,42.8,75,30.18,10.0,West,3.5,-,N/A,,Clear,260,2013-01-01 04:55:00